User: anonymous   Login
Location: *
(43.4667°N, 11.6833°E)
Time: 13:49:35
(UTC+00:00)
Language:

Cosmos 1328 Rocket - Orbit

View from above orbital plane
View from above orbital plane
View from above satellite
View from above satellite

Ground track
Ground track

The orbit data is extracted from the following two-line orbital elements,

1 12988U 81117B   19262.82196191 +.00000074 +00000-0 +58974-5 0  9992
2 12988 082.5273 019.7887 0018213 008.1146 106.4215 14.84744021021133
Epoch (UTC): 19 September 2019 19:43:37
Eccentricity: 0.0018213
inclination: 82.5273°
perigee height: 601 km
apogee height: 627 km
right ascension of ascending node: 19.7887°
argument of perigee: 8.1146°
revolutions per day: 14.84744021
mean anomaly at epoch: 106.4215°
orbit number at epoch: 2113

The dashed part of the orbit path shows where the satellite is in the earth's shadow,  

DLR